Location: Campolattaro
(41.2833°N, 14.7333°E)
Time: 00:45:49
(UTC+00:00)

Helios 1B rocket - Pass Details

Date: 19 May 2025
Orbit: 497 x 502 km, 98.2° (Epoch: 15 June)

Event Time Altitude Azimuth Distance (km) Brightness Sun altitude
Exits shadow 19:15:07 - 166° (SSE) 1,826 4.5 -10.0°
Reaches altitude 10° 19:15:26 10° 166° (SSE) 1,693 4.3 -10.1°
Maximum altitude 19:19:05 89° 245° (WSW) 504 2.1 -10.6°
Drops below altitude 10° 19:22:46 10° 347° (NNW) 1,709 5.7 -11.1°
Sets 19:24:51 0° 347° (NNW) 2,598 6.7 -11.4°
